Weather History for West Palm Beach, FL

Change the Weather History Date:

Sunday, November 28, 2010

  Actual Average Record
Temperature  
Mean Temperature 74 °F 71 °F  
Max Temperature 80 °F 78 °F 89 °F (1948)
Min Temperature 68 °F 63 °F 36 °F (1903)
Degree Days  
Heating Degree Days 0 1  
Month to date heating degree days 9 7  
Since 1 July heating degree days 9 8  
Cooling Degree Days 9 6  
Month to date cooling degree days 233 231  
Year to date cooling degree days 4001 3852  
Growing Degree Days 24 (Base 50)    
Moisture  
Dew Point 67 °F    
Average Humidity 81    
Maximum Humidity 90    
Minimum Humidity 71    
Precipitation  
Precipitation T in 0.13 in 4.10 in (1947)
Month to date precipitation 1.20 4.48  
Year to date precipitation 51.91 58.68  
Snow  
Snow 0.00 in - - ()
Month to date snowfall 0.0  
Since 1 July snowfall 0.0  
Since 1 September snowfall 0.0  
Snow Depth 0.00 in    
Sea Level Pressure  
Sea Level Pressure 30.05 in    
Wind  
Wind Speed 9 mph (ENE)    
Max Wind Speed 18 mph    
Max Gust Speed 24 mph    
Visibility 10 miles    
Events      
T = Trace of Precipitation, MM = Missing Value Source: NWS Daily Summary

Daily Weather History Graph

Daily Weather History Graph

Search for Another Location

Airport:

Trip Planner

Search our weather history database for the weather conditions in past years. The results will help you decide how hot, cold, wet, or windy it might be!

Date:

Astronomy

Nov. 28, 2010 Rise Set
Actual Time 6:49 AM EST 5:27 PM EST
Civil Twilight 6:24 AM EST 5:52 PM EST
Nautical Twilight 5:56 AM EST 6:20 PM EST
Astronomical Twilight 5:27 AM EST 6:48 PM EST
Moon No Moon Rise 12:20 PM EST (11/28)
Length of Visible Light 11h 27m
Length of Day
10h 37m
Waning Gibbous, 52% of the Moon is Illuminated
Nov 28
Waning Gibbous
Nov 28
Last Quarter
Dec 5
New
Dec 13
First Quarter
Dec 21
Full

Hourly Weather History & Observations

Time (EST) Temp. Dew Point Humidity Pressure Visibility Wind Dir Wind Speed Gust Speed Precip Events Conditions
12:53 AM 70.0 °F 66.9 °F 90% 30.01 in 10.0 mi NNW 4.6 mph - N/A   Mostly Cloudy
1:53 AM 71.1 °F 68.0 °F 90% 30.01 in 10.0 mi NNW 3.5 mph - N/A   Overcast
2:53 AM 72.0 °F 66.9 °F 84% 30.01 in 10.0 mi NNW 6.9 mph - N/A   Overcast
3:53 AM 70.0 °F 66.0 °F 87% 30.01 in 10.0 mi NNW 6.9 mph - N/A   Overcast
4:53 AM 69.1 °F 66.0 °F 90% 30.02 in 10.0 mi NW 6.9 mph - N/A   Mostly Cloudy
5:53 AM 68.0 °F 64.9 °F 90% 30.03 in 10.0 mi NW 5.8 mph - N/A   Scattered Clouds
6:04 AM 68.0 °F 64.4 °F 88% 30.03 in 10.0 mi NNW 5.8 mph - N/A   Mostly Cloudy
6:53 AM 68.0 °F 64.9 °F 90% 30.04 in 10.0 mi NNW 3.5 mph - N/A   Mostly Cloudy
7:53 AM 73.9 °F 69.1 °F 85% 30.06 in 10.0 mi NE 9.2 mph - N/A   Mostly Cloudy
8:53 AM 75.9 °F 68.0 °F 76% 30.08 in 10.0 mi ENE 10.4 mph - N/A   Mostly Cloudy
9:53 AM 77.0 °F 69.1 °F 76% 30.10 in 10.0 mi East 15.0 mph - N/A   Mostly Cloudy
10:26 AM 77.0 °F 68.0 °F 74% 30.10 in 10.0 mi East 11.5 mph - N/A   Mostly Cloudy
10:53 AM 78.1 °F 68.0 °F 71% 30.10 in 10.0 mi NE 12.7 mph - N/A   Overcast
11:53 AM 77.0 °F 69.1 °F 76% 30.07 in 10.0 mi ENE 12.7 mph - 0.00 in   Mostly Cloudy
12:53 PM 78.1 °F 68.0 °F 71% 30.06 in 10.0 mi East 11.5 mph - N/A   Mostly Cloudy
1:53 PM 78.1 °F 68.0 °F 71% 30.04 in 10.0 mi East 12.7 mph - N/A   Mostly Cloudy
2:53 PM 79.0 °F 69.1 °F 72% 30.03 in 9.0 mi East 11.5 mph - N/A   Mostly Cloudy
3:53 PM 78.1 °F 69.1 °F 74% 30.04 in 10.0 mi East 16.1 mph - N/A   Mostly Cloudy
4:53 PM 77.0 °F 69.1 °F 76% 30.04 in 10.0 mi ESE 16.1 mph 24.2 mph N/A   Mostly Cloudy
5:53 PM 75.0 °F 68.0 °F 79% 30.06 in 10.0 mi ESE 12.7 mph - N/A   Mostly Cloudy
6:53 PM 73.9 °F 68.0 °F 82% 30.06 in 10.0 mi Calm Calm - N/A   Scattered Clouds
7:53 PM 73.9 °F 66.9 °F 79% 30.07 in 10.0 mi East 4.6 mph - N/A   Scattered Clouds
8:53 PM 75.0 °F 66.9 °F 76% 30.08 in 10.0 mi ESE 3.5 mph - N/A   Scattered Clouds
9:53 PM 75.0 °F 66.0 °F 73% 30.09 in 10.0 mi East 4.6 mph - N/A   Scattered Clouds
10:53 PM 75.0 °F 68.0 °F 79% 30.09 in 10.0 mi ESE 9.2 mph - N/A   Scattered Clouds
11:53 PM 75.0 °F 68.0 °F 79% 30.08 in 10.0 mi SE 6.9 mph - N/A   Partly Cloudy